Weather Roundup
Issued by NWS

Home | Current Version | Previous Version | Graphics & Text | Print | Product List | Glossary Off
Versions: 1 2 3 4 5 6 7 8 9 10 11 12 13 14 15 16 17 18 19 20 21 22 23 24 25 26 27 28 29 30 31 32 33 34 35 36 37 38 39 40 41 42 43 44 45 46 47 48 49 50

000
NZUS93 KARX 301059
HRRWXR

CURRENT HOURLY OBSERVATIONS ACROSS
MUCH OF THE UPPER MISSISSIPPI VALLEY
NATIONAL WEATHER SERVICE LA CROSSE WI
600 AM CDT SAT APR 30 2016


...SOUTHEAST MINNESOTA...


CITY           SKY/WX    TMP DP  RH WIND       PRES   REMARKS
ROCHESTER      CLOUDY    41  38  89 E12       30.04F
ROCHESTER/MAYO FAIR      43  37  80 E12G17    30.05F
WINONA         CLOUDY    41  37  87 CALM      30.09S
AUSTIN         CLOUDY    43  37  81 E12       30.00F
ALBERT LEA     NOT AVBL
DODGE CENTER   CLOUDY    41  37  87 E14       30.04R
PRESTON        CLOUDY    40  36  84 NE8       30.04F WCI  35
OWATONNA       CLOUDY    43  37  81 NE9       30.04S
FARIBAULT      NOT AVBL
$$

...ELSEWHERE IN MINNESOTA...


CITY           SKY/WX    TMP DP  RH WIND       PRES   REMARKS
MINNEAPOLIS    CLOUDY    42  31  64 NE10      30.08F
INTNL FALLS    CLEAR     28  26  92 CALM      30.30R
DULUTH         PTCLDY    36  29  75 E14       30.22S WCI  27
RED WING       PTCLDY    43  34  70 E9        30.07S
REDWOOD FALLS  CLOUDY    42  34  73 E7        30.04F
MANKATO        CLOUDY    45  37  76 NE14      30.03S
WORTHINGTON    MOCLDY    42  38  85 NE20      29.95F
FAIRMONT       CLOUDY    45  30  57 NE15      29.98F
$$

...SOUTHWEST WISCONSIN...


CITY           SKY/WX    TMP DP  RH WIND       PRES   REMARKS
LA CROSSE      CLOUDY    44  36  73 E5        30.08F
PRAIRIE DU CHI CLOUDY    44  37  76 E8        30.02F
BOSCOBEL       CLOUDY    45  38  76 NE7       30.05F
LONE ROCK      NOT AVBL
PLATTEVILLE    MOCLDY    42  40  93 E10       30.02F
FORT MC COY    CLOUDY    33  33  99 CALM      30.10S
MAUSTON-NEW LI NOT AVBL
VIROQUA        CLOUDY    42  38  86 E13       30.05F
WIS DELLS      CLOUDY    40  32  70 E5        30.09S
$$

...ELSEWHERE IN WISCONSIN...


CITY           SKY/WX    TMP DP  RH WIND       PRES   REMARKS
MILWAUKEE      MOCLDY    42  37  82 NE9       30.10S
MADISON        CLOUDY    42  32  67 E9        30.08S
GREEN BAY      PTCLDY    42  38  85 NE10      30.15S
EAU CLAIRE     NOT AVBL
BLACK RVR FLS  FAIR      37  37  99 NE7       30.10F WCI  32
MEDFORD        CLOUDY    34  31  89 E3        30.13S
WAUSAU         CLOUDY    39  29  67 E3        30.13S
WIS RAPIDS     CLOUDY    39  29  67 E7        30.14F WCI  34
MARSHFIELD     MOCLDY    38  30  73 E7        30.12R WCI  33
RICE LAKE      CLEAR     37  32  79 NE7       30.16R WCI  32
$$

...NORTHEAST IOWA...


CITY           SKY/WX    TMP DP  RH WIND       PRES   REMARKS
WATERLOO       CLOUDY    44  39  82 E16       29.95F
DUBUQUE        CLOUDY    43  39  86 E9        30.01R
DECORAH        CLOUDY    43  39  87 E12G20    30.01F
MASON CITY     CLOUDY    44  39  82 NE14      29.97F
CHARLES CITY   MIX PCPN  43  43 100 E16       29.99F
OELWEIN        CLOUDY    43  41  93 E13       29.98S
$$

...ELSEWHERE IN IOWA...


CITY           SKY/WX    TMP DP  RH WIND       PRES   REMARKS
DES MOINES     LGT RAIN  46  42  86 E15G29    29.82F FOG
IOWA CITY      LGT RAIN  44  42  93 NE13G21   29.95F FOG
FORT DODGE     CLOUDY    43  37  81 E17G23    29.90F
MARSHALLTOWN   CLOUDY    44  41  89 E21       29.89F
CEDAR RAPIDS   CLOUDY    44  42  93 E13G23    29.94F
$$

...NORTHERN ILLINOIS...


CITY           SKY/WX    TMP DP  RH WIND       PRES   REMARKS
CHICAGO-OHARE  CLOUDY    45  41  86 E8        30.06R
CHICAGO-MIDWAY CLOUDY    48  41  76 E10       30.06R FOG
MOLINE         CLOUDY    46  42  86 E14       29.95F FOG
ROCKFORD       CLOUDY    45  38  76 E13       30.06S
PEORIA         CLOUDY    47  44  90 E18       29.94F FOG
$$

NOTE: "FAIR" INDICATES FEW OR NO CLOUDS BELOW 12,000 FEET WITH NO
SIGNIFICANT WEATHER AND/OR OBSTRUCTIONS TO VISIBILITY. WIND
SPEEDS ARE IN MILES-PER-HOUR.




USA.gov is the U.S. government's official web portal to all federal, state and local government web resources and services.